Location: 81360 Arifat, France
(43.7204°N, 2.3408°E)
Time: 04:21:47
(UTC+01:00)

ACS3 Solar Sail - Pass Details

Date: 17 October 2025
Orbit: 909 x 993 km, 97.3° (Epoch: 13 November)

Event Time Altitude Azimuth Distance (km) Brightness Sun altitude
Rises 07:28:33 0° 355° (N) 3,550 4.6 -7.8°
Reaches altitude 10° 07:32:12 10° 331° (NNW) 2,607 3.7 -7.1°
Maximum altitude 07:35:00 14° 302° (WNW) 2,336 3.3 -6.6°
Drops below altitude 10° 07:37:48 10° 273° (W) 2,614 3.4 -6.1°
Enters shadow 07:39:50 - 258° (WSW) 3,085 3.8 -5.8°
